EZY575B EGPH-EGAC

Flight info

Callsign EZY575B
Flight time 0h 29m
Altitude 20000
Route GOSAM P600 BLACA DCT MAGEE
Aircraft A320/M-SDE3FGHIRWY/LB1

Departure

Time 2026-04-21 14:35
Airport Edinburgh Airport (EGPH)

Arrival

Time 2026-04-21 15:04
Airport George Best Belfast City Airport (EGAC)
Time Latitude Longitude Altitude Speed Heading
2026-04-21 14:08 55.94953 -3.36030 107 ft 0 kts 254°
2026-04-21 14:25 55.94953 -3.36029 107 ft 1 kts 254°
2026-04-21 14:25 55.94959 -3.35986 105 ft 4 kts 254°
2026-04-21 14:25 55.94967 -3.35941 105 ft 4 kts 259°
2026-04-21 14:26 55.94968 -3.35895 105 ft 4 kts 290°
2026-04-21 14:26 55.94955 -3.35867 106 ft 3 kts
2026-04-21 14:26 55.94947 -3.35868 107 ft 0 kts
2026-04-21 14:28 55.94949 -3.35867 107 ft 3 kts
2026-04-21 14:29 55.94996 -3.35847 107 ft 10 kts 25°
2026-04-21 14:29 55.95047 -3.35822 106 ft 0 kts 297°
2026-04-21 14:29 55.95057 -3.35871 106 ft 9 kts 294°
2026-04-21 14:29 55.95085 -3.35962 106 ft 8 kts 300°
2026-04-21 14:30 55.95115 -3.36113 103 ft 16 kts 288°
2026-04-21 14:30 55.95132 -3.36283 104 ft 13 kts 249°
2026-04-21 14:30 55.95087 -3.36419 106 ft 15 kts 238°
2026-04-21 14:30 55.95024 -3.36604 107 ft 18 kts 238°
2026-04-21 14:31 55.94962 -3.36787 106 ft 17 kts 239°
2026-04-21 14:31 55.94899 -3.36973 104 ft 18 kts 239°
2026-04-21 14:31 55.94821 -3.37204 105 ft 21 kts 239°
2026-04-21 14:31 55.94753 -3.37405 109 ft 17 kts 238°
2026-04-21 14:32 55.94695 -3.37577 111 ft 19 kts 238°
2026-04-21 14:32 55.94612 -3.37820 112 ft 23 kts 238°
2026-04-21 14:32 55.94530 -3.38063 112 ft 22 kts 239°
2026-04-21 14:32 55.94450 -3.38298 112 ft 21 kts 238°
2026-04-21 14:33 55.94380 -3.38504 115 ft 18 kts 239°
2026-04-21 14:33 55.94321 -3.38677 116 ft 14 kts 239°
2026-04-21 14:33 55.94281 -3.38828 120 ft 12 kts 269°
2026-04-21 14:33 55.94337 -3.38918 118 ft 11 kts 330°
2026-04-21 14:34 55.94407 -3.38966 116 ft 10 kts 19°
2026-04-21 14:34 55.94442 -3.38887 116 ft 8 kts 58°
2026-04-21 14:34 55.94522 -3.38652 113 ft 55 kts 59°
2026-04-21 14:34 55.94844 -3.37702 113 ft 120 kts 58°
2026-04-21 14:35 55.95338 -3.36278 556 ft 137 kts 59°
2026-04-21 14:35 55.95835 -3.34827 1350 ft 138 kts 60°
2026-04-21 14:35 55.96507 -3.33477 1879 ft 157 kts 46°
2026-04-21 14:35 55.97382 -3.32086 2273 ft 182 kts 39°
2026-04-21 14:36 55.98675 -3.31421 2738 ft 216 kts 357°
2026-04-21 14:36 56.00117 -3.32668 3248 ft 253 kts 317°
2026-04-21 14:36 56.01039 -3.35508 3936 ft 275 kts 290°
2026-04-21 14:36 56.01530 -3.38854 4910 ft 281 kts 282°
2026-04-21 14:37 56.01764 -3.42356 5868 ft 288 kts 266°
2026-04-21 14:37 56.01472 -3.45912 6852 ft 291 kts 254°
2026-04-21 14:37 56.00901 -3.49396 7803 ft 294 kts 251°
2026-04-21 14:37 56.00351 -3.52929 8761 ft 297 kts 252°
2026-04-21 14:38 55.99846 -3.56541 9722 ft 302 kts 253°
2026-04-21 14:38 55.99353 -3.60206 10686 ft 305 kts 254°
2026-04-21 14:38 55.98836 -3.64030 11084 ft 329 kts 254°
2026-04-21 14:38 55.98270 -3.68139 11396 ft 353 kts 253°
2026-04-21 14:39 55.97662 -3.72480 11958 ft 364 kts 253°
2026-04-21 14:39 55.97033 -3.76904 12690 ft 371 kts 253°
2026-04-21 14:39 55.96391 -3.81386 13476 ft 375 kts 253°
2026-04-21 14:39 55.95737 -3.85918 14270 ft 379 kts 253°
2026-04-21 14:40 55.95071 -3.90496 14954 ft 384 kts 253°
2026-04-21 14:40 55.94402 -3.95074 15611 ft 389 kts 253°
2026-04-21 14:40 55.93488 -3.99599 16281 ft 389 kts 239°
2026-04-21 14:40 55.91942 -4.03531 16949 ft 387 kts 223°
2026-04-21 14:41 55.89890 -4.06606 17613 ft 386 kts 211°
2026-04-21 14:41 55.87666 -4.09332 18268 ft 390 kts 211°
2026-04-21 14:41 55.85420 -4.12071 18917 ft 393 kts 211°
2026-04-21 14:41 55.83145 -4.14836 19477 ft 397 kts 211°
2026-04-21 14:42 55.80854 -4.17614 20039 ft 400 kts 211°
2026-04-21 14:42 55.78546 -4.20413 20415 ft 403 kts 211°
2026-04-21 14:42 55.76227 -4.23256 20511 ft 411 kts 211°
2026-04-21 14:42 55.73846 -4.26211 20523 ft 422 kts 212°
2026-04-21 14:43 55.71436 -4.29223 20518 ft 425 kts 212°
2026-04-21 14:43 55.69021 -4.32249 20510 ft 425 kts 212°
2026-04-21 14:43 55.66608 -4.35262 20517 ft 424 kts 212°
2026-04-21 14:43 55.64195 -4.38268 20515 ft 424 kts 212°
2026-04-21 14:44 55.61776 -4.41262 20515 ft 424 kts 211°
2026-04-21 14:44 55.59354 -4.44241 20508 ft 424 kts 211°
2026-04-21 14:44 55.56932 -4.47210 20514 ft 424 kts 211°
2026-04-21 14:44 55.54512 -4.50177 20489 ft 424 kts 211°
2026-04-21 14:45 55.52088 -4.53150 20488 ft 423 kts 211°
2026-04-21 14:45 55.49670 -4.56112 20490 ft 423 kts 211°
2026-04-21 14:45 55.47250 -4.59072 20489 ft 423 kts 211°
2026-04-21 14:45 55.44829 -4.62023 20491 ft 423 kts 211°
2026-04-21 14:46 55.42403 -4.64969 20509 ft 423 kts 211°
2026-04-21 14:46 55.39980 -4.67911 20509 ft 424 kts 211°
2026-04-21 14:46 55.37555 -4.70854 20499 ft 423 kts 211°
2026-04-21 14:46 55.35128 -4.73798 20501 ft 423 kts 211°
2026-04-21 14:47 55.32705 -4.76727 20498 ft 423 kts 211°
2026-04-21 14:47 55.30200 -4.79396 20497 ft 419 kts 203°
2026-04-21 14:47 55.27593 -4.81694 20497 ft 419 kts 202°
2026-04-21 14:47 55.24986 -4.83986 20489 ft 419 kts 202°
2026-04-21 14:48 55.22378 -4.86276 20492 ft 419 kts 202°
2026-04-21 14:48 55.19806 -4.88531 20488 ft 419 kts 202°
2026-04-21 14:48 55.17161 -4.90852 20490 ft 419 kts 202°
2026-04-21 14:48 55.14589 -4.93105 20499 ft 419 kts 203°
2026-04-21 14:49 55.11980 -4.95385 20511 ft 419 kts 203°
2026-04-21 14:49 55.09375 -4.97659 20508 ft 418 kts 203°
2026-04-21 14:49 55.06778 -4.99921 20505 ft 417 kts 203°
2026-04-21 14:49 55.04188 -5.02171 20494 ft 416 kts 203°
2026-04-21 14:50 55.02439 -5.03692 20494 ft 415 kts 203°
2026-04-21 14:50 54.99023 -5.06649 20280 ft 411 kts 202°
2026-04-21 14:50 54.96469 -5.08856 19600 ft 408 kts 202°
2026-04-21 14:50 54.93946 -5.11038 19068 ft 402 kts 202°
2026-04-21 14:51 54.91530 -5.13418 18521 ft 400 kts 211°
2026-04-21 14:51 54.89430 -5.16565 17987 ft 399 kts 223°
2026-04-21 14:51 54.87751 -5.20377 17436 ft 397 kts 236°
2026-04-21 14:51 54.86552 -5.24681 16887 ft 397 kts 247°
2026-04-21 14:52 54.85644 -5.29184 16327 ft 393 kts 248°
2026-04-21 14:52 54.84740 -5.33649 15755 ft 391 kts 248°
2026-04-21 14:52 54.83837 -5.38081 15184 ft 389 kts 248°
2026-04-21 14:52 54.82935 -5.42491 14579 ft 387 kts 247°
2026-04-21 14:53 54.81722 -5.46585 13967 ft 379 kts 230°
2026-04-21 14:53 54.79844 -5.49659 13332 ft 368 kts 211°
2026-04-21 14:53 54.77710 -5.52083 12697 ft 365 kts 209°
2026-04-21 14:53 54.75580 -5.54431 12072 ft 362 kts 208°
2026-04-21 14:54 54.73467 -5.56766 11465 ft 359 kts 208°
2026-04-21 14:54 54.71376 -5.59095 10855 ft 356 kts 209°
2026-04-21 14:54 54.69309 -5.61403 10257 ft 352 kts 209°
2026-04-21 14:54 54.67260 -5.63698 9599 ft 349 kts 209°
2026-04-21 14:55 54.65236 -5.65968 8988 ft 343 kts 209°
2026-04-21 14:55 54.63325 -5.68124 8459 ft 324 kts 209°
2026-04-21 14:55 54.61524 -5.70178 8317 ft 296 kts 209°
2026-04-21 14:55 54.59865 -5.72095 7944 ft 281 kts 208°
2026-04-21 14:56 54.58246 -5.73977 7531 ft 279 kts 209°
2026-04-21 14:56 54.56643 -5.75851 7453 ft 278 kts 209°
2026-04-21 14:56 54.55047 -5.77718 7249 ft 276 kts 209°
2026-04-21 14:56 54.53456 -5.79569 6832 ft 276 kts 209°
2026-04-21 14:57 54.51866 -5.81410 6395 ft 275 kts 208°
2026-04-21 14:57 54.50283 -5.83253 5969 ft 275 kts 208°
2026-04-21 14:57 54.48701 -5.85098 5546 ft 274 kts 209°
2026-04-21 14:57 54.47117 -5.86929 5139 ft 274 kts 208°
2026-04-21 14:58 54.45536 -5.88755 4697 ft 274 kts 208°
2026-04-21 14:58 54.43958 -5.90583 4262 ft 273 kts 209°
2026-04-21 14:58 54.42405 -5.92450 3857 ft 273 kts 217°
2026-04-21 14:58 54.41243 -5.95049 3762 ft 282 kts 242°
2026-04-21 14:59 54.40789 -5.98331 3699 ft 286 kts 270°
2026-04-21 14:59 54.41220 -6.01619 3628 ft 282 kts 299°
2026-04-21 14:59 54.42403 -6.04189 3567 ft 268 kts 327°
2026-04-21 14:59 54.43941 -6.05561 3503 ft 241 kts 352°
2026-04-21 15:00 54.45515 -6.05742 3449 ft 216 kts 16°
2026-04-21 15:00 54.46883 -6.04978 3385 ft 196 kts 37°
2026-04-21 15:00 54.47998 -6.03708 3230 ft 191 kts 41°
2026-04-21 15:00 54.49076 -6.02421 2998 ft 191 kts 41°
2026-04-21 15:01 54.50161 -6.01132 2722 ft 187 kts 41°
2026-04-21 15:01 54.51212 -5.99884 2478 ft 181 kts 41°
2026-04-21 15:01 54.52234 -5.98670 2223 ft 175 kts 41°
2026-04-21 15:01 54.53219 -5.97501 2010 ft 168 kts 41°
2026-04-21 15:02 54.54173 -5.96365 1769 ft 166 kts 41°
2026-04-21 15:02 54.55116 -5.95241 1521 ft 164 kts 41°
2026-04-21 15:02 54.56035 -5.94149 1321 ft 155 kts 43°
2026-04-21 15:02 54.56894 -5.93128 1086 ft 144 kts 42°
2026-04-21 15:03 54.57682 -5.92190 902 ft 133 kts 42°
2026-04-21 15:03 54.58415 -5.91315 720 ft 125 kts 41°
2026-04-21 15:03 54.59122 -5.90468 557 ft 124 kts 41°
2026-04-21 15:03 54.59828 -5.89624 384 ft 124 kts 41°
2026-04-21 15:04 54.60531 -5.88785 236 ft 121 kts 42°
2026-04-21 15:04 54.61222 -5.87955 45 ft 120 kts 40°
2026-04-21 15:04 54.61831 -5.87223 22 ft 89 kts 34°
2026-04-21 15:04 54.62200 -5.86786 22 ft 40 kts 36°
2026-04-21 15:05 54.62349 -5.86608 22 ft 23 kts 34°
2026-04-21 15:05 54.62457 -5.86475 21 ft 10 kts 197°
2026-04-21 15:05 54.62394 -5.86549 22 ft 15 kts 216°
2026-04-21 15:06 54.62272 -5.86700 22 ft 25 kts 214°
2026-04-21 15:06 54.62131 -5.86869 20 ft 25 kts 214°
2026-04-21 15:06 54.61995 -5.87031 21 ft 23 kts 214°
2026-04-21 15:06 54.61887 -5.87157 21 ft 10 kts 214°
2026-04-21 15:07 54.61829 -5.87158 21 ft 10 kts 137°
2026-04-21 15:07 54.61784 -5.87050 21 ft 12 kts 124°
2026-04-21 15:07 54.61725 -5.86996 21 ft 10 kts 196°
2026-04-21 15:07 54.61667 -5.87060 21 ft 10 kts 214°
2026-04-21 15:08 54.61600 -5.87140 22 ft 13 kts 215°
2026-04-21 15:08 54.61528 -5.87228 21 ft 12 kts 215°
2026-04-21 15:08 54.61474 -5.87288 22 ft 7 kts 197°
2026-04-21 15:08 54.61450 -5.87258 22 ft 2 kts 125°
2026-04-21 15:09 54.61441 -5.87238 23 ft 1 kts 126°
2026-04-21 15:09 54.61441 -5.87236 22 ft 0 kts 126°